Location: Kuppenheim
(48.8299°N, 8.2568°E)
Time: 14:07:12
(UTC+00:00)

SL-4 R/B - Pass Details

Date: 20 June 2021
Orbit: 428 x 662 km, 51.6° (Epoch: 29 July)

Event Time Altitude Azimuth Distance (km) Brightness Sun altitude
Rises 01:20:06 0° 282° (WNW) 2,593 5.3 -13.6°
Reaches altitude 10° 01:22:24 10° 286° (WNW) 1,669 4.4 -13.4°
Maximum altitude 01:26:05 55° 6° (N) 562 2.4 -13.1°
Drops below altitude 10° 01:29:33 10° 85° (E) 1,570 4.8 -12.8°
Sets 01:31:38 0° 90° (E) 2,418 5.7 -12.7°
